• In Netherlands
  • List of Countries
  • For 7 days
  • Water Temperature
  • Satellite Maps
  • Weather Map
  • Weather Widgets
  • user-avatar
    Login

    Hourly Weather Ahtopol

    Today, 26 July, Wednesday

    Time Temperature Precipitation Wind Pressure Humidity
    00:00 +22°C° 0 mm 4 mps 751 mmHg 84%
    01:00 +21°C° 0 mm 3 mps 751 mmHg 85%
    02:00 +21°C° 0 mm 3 mps 751 mmHg 87%
    03:00 +21°C° 0 mm 3 mps 751 mmHg 86%
    04:00 +21°C° 0 mm 3 mps 751 mmHg 86%
    05:00 +20°C° 0 mm 3 mps 751 mmHg 85%
    06:00 +22°C° 0 mm 3 mps 751 mmHg 77%
    07:00 +25°C° 0 mm 3 mps 751 mmHg 69%
    08:00 +27°C° 0 mm 3 mps 751 mmHg 59%
    09:00 +29°C° 0 mm 3 mps 751 mmHg 53%
    10:00 +31°C° 0 mm 3 mps 751 mmHg 46%
    11:00 +34°C° 0 mm 3 mps 751 mmHg 39%
    12:00 +35°C° 0 mm 3 mps 751 mmHg 37%
    13:00 +36°C° 0 mm 4 mps 750 mmHg 36%
    14:00 +36°C° 0 mm 4 mps 750 mmHg 34%
    15:00 +35°C° 0 mm 5 mps 750 mmHg 38%
    16:00 +34°C° 0 mm 5 mps 750 mmHg 42%
    17:00 +33°C° 0 mm 5 mps 749 mmHg 46%
    18:00 +30°C° 0 mm 4 mps 749 mmHg 53%
    19:00 +28°C° 0 mm 4 mps 749 mmHg 61%
    20:00 +26°C° 0 mm 3 mps 749 mmHg 69%
    21:00 +25°C° 0 mm 3 mps 750 mmHg 74%
    22:00 +24°C° 0 mm 2 mps 750 mmHg 79%
    23:00 +24°C° 0 mm 2 mps 750 mmHg 84%

    Tomorrow, 27 July, Thursday

    Time Temperature Precipitation Wind Pressure Humidity
    00:00 +23°C° 0 mm 2 mps 750 mmHg 84%
    01:00 +23°C° 0 mm 2 mps 750 mmHg 84%
    02:00 +23°C° 0 mm 1 mps 750 mmHg 84%
    03:00 +23°C° 0 mm 1 mps 750 mmHg 84%
    04:00 +23°C° 0 mm 1 mps 750 mmHg 83%
    05:00 +21°C° 0 mm 2 mps 750 mmHg 83%
    06:00 +24°C° 0 mm 2 mps 750 mmHg 77%
    07:00 +25°C° 0 mm 3 mps 750 mmHg 71%
    08:00 +27°C° 0 mm 3 mps 751 mmHg 64%
    09:00 +28°C° 0 mm 3 mps 751 mmHg 59%
    10:00 +30°C° 0 mm 3 mps 751 mmHg 54%
    11:00 +32°C° 0 mm 4 mps 751 mmHg 48%
    12:00 +32°C° 0.4 mm 4 mps 751 mmHg 49%
    13:00 +32°C° 0.4 mm 4 mps 751 mmHg 50%
    14:00 +32°C° 0.4 mm 4 mps 750 mmHg 51%
    15:00 +32°C° 0.4 mm 4 mps 750 mmHg 51%
    16:00 +30°C° 0.4 mm 5 mps 750 mmHg 50%
    17:00 +30°C° 0.4 mm 5 mps 750 mmHg 50%
    18:00 +28°C° 0.2 mm 5 mps 751 mmHg 56%
    19:00 +26°C° 0.2 mm 6 mps 751 mmHg 62%
    20:00 +23°C° 0.2 mm 6 mps 751 mmHg 68%
    21:00 +23°C° 0.4 mm 5 mps 751 mmHg 71%
    22:00 +22°C° 0.4 mm 5 mps 752 mmHg 74%
    23:00 +21°C° 0.4 mm 4 mps 752 mmHg 77%

    Day after tomorrow, 28 July, Friday

    Time Temperature Precipitation Wind Pressure Humidity
    00:00 +21°C° 1 mm 4 mps 752 mmHg 76%
    01:00 +21°C° 1 mm 4 mps 752 mmHg 75%
    02:00 +21°C° 1 mm 4 mps 752 mmHg 74%
    03:00 +20°C° 0.2 mm 5 mps 753 mmHg 72%
    04:00 +20°C° 0.2 mm 5 mps 753 mmHg 71%
    05:00 +20°C° 0.2 mm 6 mps 753 mmHg 69%
    06:00 +21°C° 0.2 mm 6 mps 753 mmHg 64%
    07:00 +22°C° 0.2 mm 6 mps 754 mmHg 60%
    08:00 +23°C° 0.2 mm 6 mps 754 mmHg 56%
    09:00 +26°C° 0 mm 6 mps 755 mmHg 50%
    10:00 +28°C° 0 mm 6 mps 755 mmHg 45%
    11:00 +30°C° 0 mm 5 mps 755 mmHg 39%
    12:00 +32°C° 0 mm 5 mps 755 mmHg 37%
    13:00 +32°C° 0 mm 4 mps 755 mmHg 36%
    14:00 +33°C° 0 mm 4 mps 755 mmHg 34%
    15:00 +33°C° 0 mm 4 mps 755 mmHg 36%
    16:00 +32°C° 0 mm 4 mps 755 mmHg 37%
    17:00 +32°C° 0 mm 4 mps 755 mmHg 38%
    18:00 +29°C° 0 mm 3 mps 756 mmHg 41%
    19:00 +28°C° 0 mm 3 mps 756 mmHg 45%
    20:00 +26°C° 0 mm 3 mps 756 mmHg 48%
    21:00 +25°C° 0 mm 2 mps 757 mmHg 50%
    22:00 +24°C° 0 mm 2 mps 757 mmHg 52%
    23:00 +23°C° 0 mm 2 mps 758 mmHg 54%

    29 July, Saturday

    Time Temperature Precipitation Wind Pressure Humidity
    00:00 +23°C° 0 mm 2 mps 758 mmHg 55%
    01:00 +23°C° 0 mm 2 mps 758 mmHg 57%
    02:00 +21°C° 0 mm 3 mps 759 mmHg 58%
    03:00 +21°C° 0 mm 3 mps 759 mmHg 60%
    04:00 +21°C° 0 mm 3 mps 759 mmHg 62%
    05:00 +20°C° 0 mm 3 mps 760 mmHg 64%
    06:00 +22°C° 0 mm 3 mps 760 mmHg 58%
    07:00 +25°C° 0 mm 3 mps 761 mmHg 53%
    08:00 +27°C° 0 mm 3 mps 761 mmHg 47%
    09:00 +29°C° 0 mm 3 mps 761 mmHg 42%
    10:00 +31°C° 0 mm 3 mps 761 mmHg 37%
    11:00 +34°C° 0 mm 4 mps 762 mmHg 32%
    12:00 +34°C° 0 mm 4 mps 762 mmHg 30%
    13:00 +35°C° 0 mm 3 mps 761 mmHg 29%
    14:00 +36°C° 0 mm 3 mps 761 mmHg 27%
    15:00 +36°C° 0 mm 4 mps 761 mmHg 28%
    16:00 +35°C° 0 mm 4 mps 761 mmHg 29%
    17:00 +35°C° 0 mm 4 mps 761 mmHg 30%
    18:00 +33°C° 0 mm 3 mps 762 mmHg 39%
    19:00 +29°C° 0 mm 3 mps 762 mmHg 47%
    20:00 +26°C° 0 mm 2 mps 762 mmHg 56%
    21:00 +25°C° 0 mm 2 mps 762 mmHg 60%
    22:00 +25°C° 0 mm 2 mps 763 mmHg 64%
    23:00 +24°C° 0 mm 1 mps 763 mmHg 68%

    30 July, Sunday

    Time Temperature Precipitation Wind Pressure Humidity
    00:00 +23°C° 0 mm 1 mps 763 mmHg 70%
    01:00 +23°C° 0 mm 1 mps 763 mmHg 71%
    02:00 +23°C° 0 mm 1 mps 763 mmHg 72%
    03:00 +22°C° 0 mm 1 mps 763 mmHg 71%
    04:00 +22°C° 0 mm 1 mps 763 mmHg 71%
    05:00 +22°C° 0 mm 1 mps 763 mmHg 71%
    06:00 +24°C° 0 mm 1 mps 763 mmHg 63%
    07:00 +27°C° 0 mm 1 mps 763 mmHg 55%
    08:00 +29°C° 0 mm 1 mps 763 mmHg 46%
    09:00 +31°C° 0 mm 2 mps 763 mmHg 42%
    10:00 +33°C° 0 mm 3 mps 763 mmHg 37%
    11:00 +35°C° 0 mm 4 mps 763 mmHg 32%
    12:00 +35°C° 0 mm 4 mps 763 mmHg 32%
    13:00 +35°C° 0 mm 5 mps 762 mmHg 31%
    14:00 +36°C° 0 mm 5 mps 762 mmHg 30%
    15:00 +35°C° 0 mm 5 mps 762 mmHg 32%
    16:00 +34°C° 0 mm 5 mps 762 mmHg 34%
    17:00 +33°C° 0 mm 5 mps 761 mmHg 36%
    18:00 +30°C° 0 mm 5 mps 762 mmHg 46%
    19:00 +27°C° 0 mm 4 mps 762 mmHg 55%
    20:00 +25°C° 0 mm 3 mps 762 mmHg 65%
    21:00 +24°C° 0 mm 3 mps 762 mmHg 71%
    22:00 +22°C° 0 mm 3 mps 762 mmHg 78%
    23:00 +21°C° 0 mm 2 mps 762 mmHg 84%

    31 July, Monday

    Time Temperature Precipitation Wind Pressure Humidity
    00:00 +21°C° 0 mm 2 mps 762 mmHg 86%
    01:00 +21°C° 0 mm 3 mps 762 mmHg 88%
    02:00 +21°C° 0 mm 3 mps 761 mmHg 89%
    03:00 +20°C° 0 mm 3 mps 762 mmHg 90%
    04:00 +20°C° 0 mm 3 mps 762 mmHg 90%
    05:00 +20°C° 0 mm 3 mps 762 mmHg 90%
    06:00 +22°C° 0 mm 4 mps 762 mmHg 80%
    07:00 +25°C° 0 mm 4 mps 762 mmHg 70%
    08:00 +28°C° 0 mm 5 mps 762 mmHg 59%
    09:00 +29°C° 0 mm 6 mps 762 mmHg 52%
    10:00 +32°C° 0 mm 6 mps 762 mmHg 45%
    11:00 +33°C° 0 mm 7 mps 762 mmHg 38%
    12:00 +34°C° 0 mm 7 mps 762 mmHg 36%
    13:00 +34°C° 0 mm 7 mps 762 mmHg 35%
    14:00 +35°C° 0 mm 7 mps 762 mmHg 33%
    15:00 +34°C° 0 mm 7 mps 761 mmHg 34%
    16:00 +33°C° 0 mm 7 mps 761 mmHg 36%
    17:00 +32°C° 0 mm 7 mps 761 mmHg 37%
    18:00 +29°C° 0 mm 6 mps 762 mmHg 46%
    19:00 +27°C° 0 mm 5 mps 762 mmHg 55%
    20:00 +25°C° 0 mm 4 mps 762 mmHg 63%
    21:00 +23°C° 0 mm 4 mps 762 mmHg 68%
    22:00 +23°C° 0 mm 4 mps 762 mmHg 72%
    23:00 +22°C° 0 mm 4 mps 763 mmHg 77%
    Show more